Volver al catálogo

STARLINK-31479

ActivoComunicacionesVLEO
NORAD 59316·PAYLOAD·🇺🇸 United States

Lanzado Mar 24, 2024 desde Cape Canaveral Space Force Station

Loading…

Próximos Pases (próximas 24 horas)

TLE

ActualizadoSource: CelesTrak SupGP

Época: Sep 14, 2026, 21:26 UTC

1 59316C 24056W   26257.89354167  .00041981  00000+0  15219-2 0  2575
2 59316  43.0026 246.2564 0001326 265.6859  88.0171 15.27528231    15

Sigue STARLINK-31479 en tiempo real con AllMySat

Download on the App Store